Regional Weather Roundup
Issued by NWS State College, PA

Home | Current Version | Previous Version | Text Only | Print | Product List | Glossary On
Versions: 1 2 3 4 5 6 7 8 9 10 11 12 13 14 15 16 17 18 19 20 21 22 23 24 25 26 27 28 29 30 31 32 33 34 35 36 37 38 39 40 41 42 43 44 45 46 47 48 49 50
000
ASUS41 KCTP 301810
RWRCTP

REGIONAL WEATHER ROUNDUP
NATIONAL WEATHER SERVICE STATE COLLEGE PA
200 PM EDT THU JUL 30 2015

Note: "fair" indicates few or no clouds below 12,000 feet with no
significant weather and/or obstructions to visibility.

* = STATION THAT DOES NOT REPORT PRECIPITATION /E.G. RAIN...SNOW...ETC/
    THUNDER OR FOG.

PAZ002>004-007>009-013>016-020>023-029>032-301900-
WESTERN PENNSYLVANIA

CITY           SKY/WX    TMP DP  RH WIND       PRES   REMARKS
ERIE           SUNNY     81  60  48 W14G22    29.95S
MEADVILLE      RAIN      84  53  34 W15G22    29.98F
FRANKLIN*      MOSUNNY   81  57  44 W12G17    29.99F
NEW CASTLE     MOCLDY    86  59  39 W10       29.98F
BEAVER COUNTY  SUNNY     84  55  37 W10       29.99F
BUTLER*        SUNNY     84  57  39 W15G22    30.00S
PITTSBURGH INT MOSUNNY   86  54  33 W15G22    29.98F
PITTSBURGH     SUNNY     84  48  28 W12G17    29.97F
INDIANA*       SUNNY     82  59  44 VRB8G15   30.00F
LATROBE        MOSUNNY   84  55  37 W12G17    29.98F
WASHINGTON CO* NOT AVBL
$$

PAZ004>006-010>012-017>019-024>028-033>037-041-042-045-046-049>053-301900-
CENTRAL PENNSYLVANIA

CITY           SKY/WX    TMP DP  RH WIND       PRES   REMARKS
BRADFORD       MOSUNNY   79  55  43 W13G23    29.97F
DUBOIS         SUNNY     83  57  41 W13G23    29.96F
CLEARFIELD     SUNNY     85  54  34 NW15G22   29.95F
JOHNSTOWN      MOSUNNY   79  57  46 W14       30.00F
ALTOONA        MOSUNNY   82  62  50 W10       29.95F
STATE COLLEGE  SUNNY     82  63  51 W14       29.92F
WILLIAMSPORT   PTSUNNY   87  67  51 W13       29.83F
SELINSGROVE    CLOUDY    84  74  71 W7        29.86F
FT INDIANTOWN  CLOUDY    80  72  77 SW8       29.87F
CAPITAL CITY   CLOUDY    82  73  74 CALM      29.86F
HARRISBURG     CLOUDY    81  74  79 CALM      29.86F
YORK           CLOUDY    82  76  81 SW3       29.88F
$$

PAZ038>040-043-044-047-048-054-055-060>062-067>071-301900-
EASTERN PENNSYLVANIA

CITY           SKY/WX    TMP DP  RH WIND       PRES   REMARKS
SCRANTON       LGT RAIN  81  72  74 SW13G21   29.87S
MOUNT POCONO     N/A    N/A N/A N/A MISG      29.93F
ALLENTOWN      TSTM      79  73  83 W12G21    29.87R VSB 1/4
QUAKERTOWN*    MOCLDY    82  75  78 SW9       29.88R
READING        LGT RAIN  74  72  93 S7        29.87S
LANCASTER      CLOUDY    75  72  90 SW6       29.88F
COATESVILLE    CLOUDY    77  72  83 W12G22    29.92R
POTTSTOWN      CLOUDY    82  75  79 SW7       29.89R
BLUE BELL      PTSUNNY   86  75  70 SW10G16   29.85F HX  95
DOYLESTOWN     PTSUNNY   83  73  72 SW10      29.85F
WILLOW GROVE   NOT AVBL
NORTH PHILA    PTSUNNY   88  71  57 SW14      29.87F
PHILADELPHIA   CLOUDY    90  73  57 S16       29.86F HX  98
$$



USA.gov is the U.S. government's official web portal to all federal, state and local government web resources and services.